Location: Bronschhofen
(47.4788°N, 9.0353°E)
Time: 21:19:11
(UTC+00:00)

OE (NEXTSAT) - Pass Details

Date: 20 May 2022
Orbit: 401 x 403 km, 46.0° (Epoch: 01 July)

Event Time Altitude Azimuth Distance (km) Brightness Sun altitude
Exits shadow 00:37:59 29° 102° (ESE) 773 5.6 -20.4°
Drops below altitude 10° 00:39:46 10° 95° (E) 1,461 7.1 -20.3°
Enters shadow 01:46:40 -48° 282° (WNW) 10,021 11.2 -15.0°
